| time (UTC) | temp F | wind direction | speed MPH | gust MPH | rain 1hr in | rain 24hr in | rain mn in | humidity % | barometer mb |
| 20260507060016 | 42 | 0.0 | 0.0 | 0.00 | 0.67 | 0.00 | 89 | 1014.2 | |
| 20260507055017 | 42 | 0.0 | 0.0 | 0.00 | 0.69 | 0.00 | 89 | 1014.3 | |
| 20260507054016 | 42 | 0.0 | 0.0 | 0.00 | 0.71 | 0.00 | 89 | 1014.4 | |
| 20260507053015 | 42 | 0.0 | 0.0 | 0.00 | 0.72 | 0.00 | 89 | 1014.4 | |
| 20260507052016 | 42 | 0.0 | 0.0 | 0.00 | 0.74 | 0.00 | 90 | 1014.5 | |
| 20260507051017 | 42 | 0.0 | 0.0 | 0.00 | 0.76 | 0.00 | 90 | 1014.6 | |
| 20260507050017 | 42 | 0.0 | 0.0 | 0.00 | 0.78 | 0.00 | 90 | 1014.6 | |
| 20260507045016 | 42 | 0.0 | 0.0 | 0.00 | 0.80 | 0.00 | 90 | 1014.5 | |
| 20260507044016 | 42 | 0.0 | 0.0 | 0.00 | 0.82 | 0.00 | 90 | 1014.5 | |
| 20260507043038 | 43 | 0.0 | 0.0 | 0.00 | 0.83 | 0.00 | 91 | 1014.6 | |
| 20260507042015 | 43 | 0.0 | 0.0 | 0.00 | 0.84 | 0.00 | 91 | 1014.4 | |
| 20260507041036 | 43 | 0.0 | 0.0 | 0.00 | 0.85 | 0.00 | 91 | 1014.3 | |
| 20260507040016 | 43 | 0.0 | 0.0 | 0.00 | 0.85 | 0.00 | 92 | 1014.3 | |
| 20260507035017 | 43 | 0.0 | 0.0 | 0.00 | 0.86 | 0.86 | 92 | 1014.2 | |
| 20260507034016 | 43 | 0.0 | 0.0 | 0.00 | 0.87 | 0.86 | 92 | 1014.2 | |
| 20260507033016 | 43 | 0.0 | 0.0 | 0.00 | 0.88 | 0.86 | 92 | 1014.2 | |
| 20260507032035 | 43 | 0.0 | 0.0 | 0.00 | 0.89 | 0.86 | 92 | 1014.0 | |
| 20260507031017 | 43 | 0.0 | 0.0 | 0.00 | 0.89 | 0.86 | 92 | 1014.0 | |
| 20260507030016 | 43 | 0.0 | 0.0 | 0.00 | 0.89 | 0.86 | 92 | 1013.9 | |
| 20260507025036 | 43 | 0.0 | 0.0 | 0.00 | 0.89 | 0.86 | 92 | 1013.9 | |
| 20260507024036 | 43 | 0.0 | 0.0 | 0.00 | 0.89 | 0.86 | 92 | 1013.9 | |
| 20260507023015 | 43 | 0.0 | 0.0 | 0.00 | 0.89 | 0.86 | 92 | 1013.8 | |
| 20260507022015 | 43 | 0.0 | 0.0 | 0.00 | 0.90 | 0.86 | 91 | 1013.9 | |
| 20260507021015 | 43 | 0.0 | 0.0 | 0.00 | 0.90 | 0.86 | 91 | 1013.9 | |
| 20260507020036 | 43 | 0.0 | 0.0 | 0.00 | 0.91 | 0.86 | 91 | 1014.0 | |
| 20260507015016 | 43 | 0.0 | 0.0 | 0.00 | 0.91 | 0.86 | 91 | 1013.9 | |
| 20260507014015 | 43 | 0.0 | 0.0 | 0.00 | 0.93 | 0.86 | 90 | 1013.7 | |
| 20260507013016 | 43 | 0.0 | 0.0 | 0.00 | 0.94 | 0.86 | 90 | 1013.7 | |
| 20260507012015 | 43 | 0.0 | 0.0 | 0.00 | 0.95 | 0.86 | 90 | 1013.9 | |
| 20260507011016 | 43 | 0.0 | 0.0 | 0.02 | 0.95 | 0.86 | 90 | 1013.8 | |
| 20260507010016 | 43 | 0.0 | 0.0 | 0.03 | 0.95 | 0.86 | 89 | 1013.7 | |
| 20260507005017 | 44 | 0.0 | 0.0 | 0.04 | 0.95 | 0.86 | 89 | 1013.5 | |
| 20260507004016 | 44 | 0.0 | 0.0 | 0.07 | 0.96 | 0.86 | 88 | 1013.2 | |
| 20260507003016 | 44 | 0.0 | 0.0 | 0.09 | 0.97 | 0.86 | 88 | 1012.8 | |
| 20260507002015 | 44 | 0.0 | 0.0 | 0.11 | 0.98 | 0.86 | 87 | 1012.7 | |
| 20260507001016 | 45 | 0.0 | 0.0 | 0.10 | 0.96 | 0.84 | 87 | 1012.7 | |
| 20260507000016 | 45 | 0.0 | 0.0 | 0.11 | 0.96 | 0.83 | 86 | 1012.7 | |
| 20260506235015 | 46 | 0.0 | 0.0 | 0.12 | 0.95 | 0.82 | 86 | 1012.5 | |
| 20260506234016 | 47 | 0.0 | 0.0 | 0.09 | 0.93 | 0.79 | 86 | 1012.2 | |
| 20260506233035 | 47 | 0.0 | 0.0 | 0.07 | 0.91 | 0.77 | 85 | 1011.9 | |
| 20260506232017 | 48 | 0.0 | 0.0 | 0.05 | 0.91 | 0.75 | 84 | 1011.8 | |
| 20260506231016 | 48 | 0.0 | 0.0 | 0.04 | 0.91 | 0.74 | 83 | 1011.6 | |
| 20260506230057 | 48 | 0.0 | 0.0 | 0.02 | 0.91 | 0.72 | 83 | 1011.6 | |
| 20260506225036 | 48 | 0.0 | 0.0 | 0.00 | 0.91 | 0.70 | 82 | 1011.4 | |
| 20260506224016 | 48 | 0.0 | 0.0 | 0.00 | 0.91 | 0.70 | 82 | 1011.3 | |
| 20260506223017 | 48 | 0.0 | 0.0 | 0.00 | 0.92 | 0.70 | 83 | 1011.3 | |
| 20260506222016 | 48 | 0.0 | 0.0 | 0.00 | 0.93 | 0.70 | 83 | 1011.2 | |
| 20260506221036 | 48 | 0.0 | 0.0 | 0.00 | 0.93 | 0.70 | 83 | 1011.2 | |
| 20260506220017 | 48 | 0.0 | 0.0 | 0.00 | 0.93 | 0.70 | 83 | 1011.1 | |
| 20260506215016 | 48 | 0.0 | 0.0 | 0.00 | 0.93 | 0.70 | 83 | 1010.9 | |
| 20260506214016 | 48 | 0.0 | 0.0 | 0.00 | 0.93 | 0.70 | 84 | 1011.1 | |
| 20260506213036 | 48 | 0.0 | 0.0 | 0.00 | 0.93 | 0.70 | 84 | 1011.0 | |
| 20260506212015 | 48 | 0.0 | 0.0 | 0.00 | 0.93 | 0.70 | 85 | 1011.0 | |
| 20260506211016 | 48 | 0.0 | 0.0 | 0.00 | 0.93 | 0.70 | 85 | 1011.1 | |
| 20260506210017 | 48 | 0.0 | 0.0 | 0.00 | 0.93 | 0.70 | 87 | 1011.1 | |
| 20260506205036 | 48 | 0.0 | 0.0 | 0.00 | 0.93 | 0.70 | 88 | 1011.2 | |
| 20260506204016 | 48 | 0.0 | 0.0 | 0.00 | 0.93 | 0.70 | 88 | 1011.0 | |
| 20260506203016 | 47 | 0.0 | 0.0 | 0.00 | 0.93 | 0.70 | 89 | 1011.1 | |
| 20260506202036 | 47 | 0.0 | 0.0 | 0.00 | 0.93 | 0.70 | 89 | 1010.9 | |
| 20260506201016 | 47 | 0.0 | 0.0 | 0.00 | 0.93 | 0.70 | 90 | 1010.9 | |
| 20260506200016 | 47 | 0.0 | 0.0 | 0.00 | 0.93 | 0.70 | 90 | 1011.2 | |
| 20260506195017 | 47 | 0.0 | 0.0 | 0.00 | 0.93 | 0.70 | 91 | 1011.2 | |
| 20260506194016 | 47 | 0.0 | 0.0 | 0.00 | 0.93 | 0.70 | 92 | 1011.1 | |
| 20260506193021 | 47 | 0.0 | 0.0 | 0.00 | 0.93 | 0.70 | 93 | 1011.2 | |
| 20260506192017 | 47 | 0.0 | 0.0 | 0.00 | 0.93 | 0.70 | 93 | 1011.0 | |
| 20260506191015 | 46 | 0.0 | 0.0 | 0.00 | 0.93 | 0.70 | 94 | 1011.1 | |
| 20260506190018 | 46 | 0.0 | 0.0 | 0.00 | 0.93 | 0.70 | 94 | 1011.3 | |
| 20260506185017 | 46 | 0.0 | 0.0 | 0.00 | 0.93 | 0.70 | 94 | 1011.3 | |
| 20260506184015 | 45 | 0.0 | 0.0 | 0.00 | 0.93 | 0.70 | 95 | 1011.3 | |
| 20260506183017 | 45 | 0.0 | 0.0 | 0.00 | 0.93 | 0.70 | 95 | 1011.3 | |
| 20260506182017 | 45 | 0.0 | 0.0 | 0.00 | 0.93 | 0.70 | 95 | 1011.3 | |
| 20260506181016 | 44 | 0.0 | 0.0 | 0.00 | 0.93 | 0.70 | 95 | 1011.5 | |
| 20260506180016 | 45 | 0.0 | 0.0 | 0.00 | 0.93 | 0.70 | 95 | 1011.8 | |
| 20260506175518 | 45 | 0.0 | 0.0 | 0.00 | 0.93 | 0.70 | 95 | 1011.7 | |
| 20260506174516 | 45 | 0.0 | 0.0 | 0.00 | 0.93 | 0.70 | 96 | 1011.4 | |
| 20260506173517 | 45 | 0.0 | 0.0 | 0.00 | 0.93 | 0.70 | 95 | 1011.1 | |
| 20260506172517 | 45 | 0.0 | 0.0 | 0.00 | 0.93 | 0.70 | 96 | 1011.1 | |
| 20260506171517 | 45 | 0.0 | 0.0 | 0.00 | 0.93 | 0.70 | 96 | 1010.7 | |
| 20260506170516 | 45 | 0.0 | 0.0 | 0.00 | 0.93 | 0.70 | 95 | 1010.7 | |
| 20260506165517 | 45 | 0.0 | 0.0 | 0.00 | 0.93 | 0.70 | 96 | 1010.8 | |
| 20260506164516 | 45 | 0.0 | 0.0 | 0.00 | 0.93 | 0.70 | 96 | 1010.6 | |
| 20260506163517 | 45 | 0.0 | 0.0 | 0.00 | 0.93 | 0.70 | 96 | 1010.9 | |
| 20260506162516 | 45 | 0.0 | 0.0 | 0.00 | 0.93 | 0.70 | 96 | 1010.6 | |
| 20260506161516 | 45 | 0.0 | 0.0 | 0.00 | 0.94 | 0.70 | 96 | 1010.8 | |
| 20260506160517 | 45 | 0.0 | 0.0 | 0.00 | 0.94 | 0.70 | 96 | 1010.6 | |
| 20260506155517 | 45 | 0.0 | 0.0 | 0.00 | 0.94 | 0.70 | 96 | 1010.8 | |
| 20260506154516 | 45 | 0.0 | 0.0 | 0.00 | 0.94 | 0.70 | 96 | 1010.9 | |
| 20260506153515 | 45 | 0.0 | 0.0 | 0.00 | 0.94 | 0.70 | 96 | 1010.7 | |
| 20260506152517 | 44 | 0.0 | 0.0 | 0.01 | 0.94 | 0.70 | 96 | 1010.5 | |
| 20260506151537 | 44 | 0.0 | 0.0 | 0.01 | 0.94 | 0.70 | 96 | 1010.6 | |
| 20260506150517 | 44 | 0.0 | 0.0 | 0.01 | 0.94 | 0.70 | 96 | 1010.6 | |
| 20260506145515 | 44 | 0.0 | 0.0 | 0.01 | 0.94 | 0.70 | 96 | 1010.6 | |
| 20260506144516 | 44 | 0.0 | 0.0 | 0.01 | 0.94 | 0.70 | 96 | 1010.5 | |
| 20260506143615 | 44 | 0.0 | 0.0 | 0.02 | 0.94 | 0.70 | 96 | 1010.3 | |
| 20260506142516 | 44 | 0.0 | 0.0 | 0.01 | 0.93 | 0.69 | 96 | 1010.3 | |
| 20260506141537 | 44 | 0.0 | 0.0 | 0.02 | 0.93 | 0.69 | 96 | 1010.1 | |
| 20260506140516 | 44 | 0.0 | 0.0 | 0.02 | 0.93 | 0.69 | 95 | 1010.0 | |
| 20260506135517 | 44 | 0.0 | 0.0 | 0.02 | 0.93 | 0.69 | 95 | 1010.2 | |
| 20260506134515 | 44 | 0.0 | 0.0 | 0.03 | 0.93 | 0.69 | 95 | 1010.3 | |
| 20260506133517 | 43 | 0.0 | 0.0 | 0.02 | 0.92 | 0.68 | 95 | 1010.2 | |
| 20260506132517 | 44 | 0.0 | 0.0 | 0.02 | 0.92 | 0.68 | 95 | 1010.1 | |
| 20260506131556 | 44 | 0.0 | 0.0 | 0.01 | 0.91 | 0.67 | 95 | 1010.0 | |
| 20260506130516 | 43 | 0.0 | 0.0 | 0.02 | 0.91 | 0.67 | 95 | 1010.0 | |
| 20260506125536 | 43 | 0.0 | 0.0 | 0.03 | 0.91 | 0.67 | 95 | 1009.9 | |
| 20260506124516 | 43 | 0.0 | 0.0 | 0.03 | 0.90 | 0.66 | 95 | 1009.9 | |
| 20260506123535 | 43 | 0.0 | 0.0 | 0.04 | 0.90 | 0.66 | 95 | 1010.1 | |
| 20260506122516 | 43 | 0.0 | 0.0 | 0.05 | 0.90 | 0.66 | 95 | 1010.0 | |
| 20260506121515 | 43 | 0.0 | 0.0 | 0.05 | 0.90 | 0.66 | 95 | 1010.0 | |
| 20260506120515 | 44 | 0.0 | 0.0 | 0.04 | 0.89 | 0.65 | 95 | 1010.1 | |
| 20260506115516 | 44 | 0.0 | 0.0 | 0.04 | 0.88 | 0.64 | 95 | 1010.1 | |
| 20260506114516 | 44 | 0.0 | 0.0 | 0.04 | 0.87 | 0.63 | 95 | 1010.0 | |
| 20260506113515 | 44 | 0.0 | 0.0 | 0.04 | 0.86 | 0.62 | 95 | 1010.0 | |
| 20260506112515 | 43 | 0.0 | 0.0 | 0.04 | 0.85 | 0.61 | 95 | 1009.8 | |
| 20260506111517 | 43 | 0.0 | 0.0 | 0.05 | 0.85 | 0.61 | 95 | 1009.5 | |
| 20260506110516 | 44 | 0.0 | 0.0 | 0.06 | 0.85 | 0.61 | 95 | 1009.7 | |
| 20260506105516 | 44 | 0.0 | 0.0 | 0.06 | 0.84 | 0.60 | 95 | 1009.4 | |
| 20260506104536 | 44 | 0.0 | 0.0 | 0.07 | 0.83 | 0.59 | 95 | 1009.7 | |
| 20260506103536 | 44 | 0.0 | 0.0 | 0.08 | 0.82 | 0.58 | 95 | 1009.9 | |
| 20260506102515 | 44 | 0.0 | 0.0 | 0.08 | 0.81 | 0.57 | 95 | 1009.9 | |
| 20260506101516 | 44 | 0.0 | 0.0 | 0.07 | 0.80 | 0.56 | 95 | 1009.9 | |
| 20260506100516 | 44 | 0.0 | 0.0 | 0.07 | 0.79 | 0.55 | 95 | 1009.9 | |
| 20260506095517 | 44 | 0.0 | 0.0 | 0.07 | 0.78 | 0.54 | 95 | 1009.9 | |
| 20260506094516 | 45 | 0.0 | 0.0 | 0.05 | 0.76 | 0.52 | 95 | 1010.1 | |
| 20260506093516 | 45 | 0.0 | 0.0 | 0.03 | 0.74 | 0.50 | 94 | 1009.9 | |
| 20260506092516 | 45 | 0.0 | 0.0 | 0.03 | 0.73 | 0.49 | 94 | 1009.7 | |
| 20260506091517 | 45 | 0.0 | 0.0 | 0.04 | 0.73 | 0.49 | 94 | 1009.5 | |
| 20260506090517 | 45 | 0.0 | 0.0 | 0.05 | 0.72 | 0.48 | 94 | 1009.2 | |
| 20260506085515 | 45 | 0.0 | 0.0 | 0.05 | 0.71 | 0.47 | 94 | 1009.5 | |
| 20260506084517 | 45 | 0.0 | 0.0 | 0.07 | 0.71 | 0.47 | 94 | 1009.6 | |
| 20260506083516 | 45 | 0.0 | 0.0 | 0.10 | 0.71 | 0.47 | 94 | 1010.1 | |
| 20260506082516 | 45 | 0.0 | 0.0 | 0.11 | 0.70 | 0.46 | 94 | 1009.9 | |
| 20260506081517 | 45 | 0.0 | 0.0 | 0.11 | 0.69 | 0.45 | 94 | 1009.6 | |
| 20260506080515 | 45 | 0.0 | 0.0 | 0.10 | 0.67 | 0.43 | 94 | 1009.7 | |
| 20260506073517 | 46 | 0.0 | 0.0 | 0.09 | 0.61 | 0.37 | 94 | 1009.8 | |
| 20260506072517 | 46 | 0.0 | 0.0 | 0.09 | 0.59 | 0.35 | 94 | 1009.7 | |
| 20260506071515 | 46 | 0.0 | 0.0 | 0.11 | 0.58 | 0.34 | 94 | 1009.5 | |
| 20260506070515 | 46 | 0.0 | 0.0 | 0.12 | 0.58 | 0.33 | 94 | 1009.4 | |
| 20260506062517 | 47 | 0.0 | 0.0 | 0.13 | 0.51 | 0.26 | 93 | 1009.9 | |
| 20260506061517 | 47 | 0.0 | 0.0 | 0.12 | 0.48 | 0.23 | 93 | 1010.3 |